This is the latest recevied weather packets stored in our database for station/object KC4KQE. If no packets are shown the sender has not sent any weather packets the latest 10 day(s).
| Time | Temp. | Humidity | Pressure | Rain* | Wind** | Luminosity | Snow |
|---|---|---|---|---|---|---|---|
| 1777855156 | 33.89° C | 14% | 1007.8 hPa | 0 mm | - | 318 W/m² | - |
| 1777854856 | 33.89° C | 14% | 1007.7 hPa | 0 mm | - | 352 W/m² | - |
| 1777854556 | 33.89° C | 13% | 1007.7 hPa | 0 mm | - | 390 W/m² | - |
| 1777854255 | 33.89° C | 13% | 1007.8 hPa | 0 mm | - | 410 W/m² | - |
| 1777853956 | 33.89° C | 13% | 1007.8 hPa | 0 mm | - | 422 W/m² | - |
| 1777853656 | 33.89° C | 13% | 1007.8 hPa | 0 mm | - | 425 W/m² | - |
| 1777853356 | 33.89° C | 13% | 1007.9 hPa | 0 mm | - | 438 W/m² | - |
| 1777853056 | 33.89° C | 13% | 1007.9 hPa | 0 mm | - | 461 W/m² | - |
| 1777852756 | 33.89° C | 14% | 1007.9 hPa | 0 mm | - | 489 W/m² | - |
| 1777852456 | 33.89° C | 13% | 1007.9 hPa | 0 mm | - | 503 W/m² | - |
| 1777852155 | 33.89° C | 14% | 1008 hPa | 0 mm | - | 538 W/m² | - |
| 1777851857 | 33.89° C | 14% | 1008.1 hPa | 0 mm | - | 543 W/m² | - |
| 1777851555 | 33.33° C | 14% | 1008 hPa | 0 mm | - | 548 W/m² | - |
| 1777851257 | 33.33° C | 14% | 1008.2 hPa | 0 mm | - | 550 W/m² | - |
| 1777850955 | 33.33° C | 14% | 1008.3 hPa | 0 mm | - | 130 W/m² | - |
| 1777850657 | 33.89° C | 13% | 1008.3 hPa | 0 mm | - | 564 W/m² | - |
| 1777850356 | 33.89° C | 13% | 1008.3 hPa | 0 mm | - | 577 W/m² | - |
| 1777850055 | 33.89° C | 14% | 1008.4 hPa | 0 mm | - | 592 W/m² | - |
| 1777849756 | 34.44° C | 13% | 1008.4 hPa | 0 mm | - | 100 W/m² | - |
| 1777849456 | 34.44° C | 13% | 1008.4 hPa | 0 mm | - | 621 W/m² | - |
| 1777849156 | 33.33° C | 14% | 1008.6 hPa | 0 mm | - | 633 W/m² | - |
| 1777848856 | 33.89° C | 13% | 1008.6 hPa | 0 mm | - | 645 W/m² | - |
| 1777848555 | 33.89° C | 14% | 1008.9 hPa | 0 mm | - | 654 W/m² | - |
| 1777848256 | 33.89° C | 14% | 1008.9 hPa | 0 mm | - | 661 W/m² | - |
| 1777847956 | 33.89° C | 14% | 1008.9 hPa | 0 mm | - | 673 W/m² | - |
* Rain latest hour (hover to see other rain measurements)
** Current wind speed in m/s (hover to see current wind gust speed)